Location: Winthrop
(48.4780°N, 120.1850°W)
Time: 16:28:07
(UTC-07:00)

Explorer 7 - Pass Details

Date: 03 February 2023
Orbit: 478 x 657 km, 50.3° (Epoch: 30 March)

Event Time Altitude Azimuth Distance (km) Brightness Sun altitude
Rises 12:53:55 0° 247° (WSW) 2,686 10.8 24.5°
Reaches altitude 10° 12:56:05 10° 246° (WSW) 1,826 10.1 24.5°
Maximum altitude 13:00:15 80° 161° (SSE) 590 7.5 24.3°
Drops below altitude 10° 13:04:43 10° 74° (ENE) 1,951 9.4 24.2°
Sets 13:07:05 0° 73° (ENE) 2,887 10.2 24.1°
